Orbital Elements at Epoch 2459200.5 (2020-Dec-17.0) TDB
Reference: JPL 16 (heliocentric ecliptic J2000)
Element | Value | Uncertainty (1-sigma) | Units |
e | .2391224874068097 | 5.2938e-08 | |
a | 2.556516280061818 | 1.9419e-08 | au |
q | 1.945195748077431 | 1.3584e-07 | au |
i | 15.11950535233305 | 1.3528e-05 | deg |
node | 311.6143305703441 | 1.6441e-05 | deg |
peri | 285.1798921876206 | 3.6626e-05 | deg |
M | 341.6198084899449 | 3.2527e-05 | deg |
tp | 2459276.728750705659 (2021-Mar-03.22875071) | 0.00013511 | TDB |
period | 1493.039408159847 4.09 | 1.7011e-05 4.657e-08 | d yr |
n | .2411188867705077 | 2.7472e-09 | deg/d |
Q | 3.167836812046203 | 2.4062e-08 | au |
|
| | Orbit Determination Parameters
Additional Information
|